FW0675 Weather Reports


Display with metric or nautical units.
time (UTC)temp
F
wind
direction
speed
MPH
gust
MPH
rain 1hr
in
rain 24hr
in
rain mn
in
humidity
%
barometer
mb
20260507014646 59 302 0.0 0.0 0.00 0.00 0.00 79 1020.6
20260507014151 59 302 0.0 0.0 0.00 0.00 0.00 79 1020.6
20260507013647 59 301 0.0 0.0 0.00 0.00 0.00 79 1020.6
20260507013150 60 301 0.0 0.0 0.00 0.00 0.00 78 1020.6
20260507012645 60 300 0.0 0.0 0.00 0.00 0.00 77 1020.6
20260507011647 61 300 0.0 0.0 0.00 0.00 0.00 76 1020.6
20260507010647 61 285 0.0 0.0 0.00 0.00 0.00 75 1020.6
20260507010146 62 290 0.0 0.0 0.00 0.00 0.00 76 1020.6
20260507005645 62 311 0.0 0.0 0.00 0.00 0.00 76 1020.6
20260507005147 62 47 0.0 0.0 0.00 0.00 0.00 75 1020.6
20260507004146 63 297 0.0 0.0 0.00 0.00 0.00 75 1020.6
20260507003645 63 307 0.0 0.0 0.00 0.00 0.00 75 1020.5
20260507003148 63 335 0.0 0.0 0.00 0.00 0.00 74 1020.6
20260507002646 63 307 0.0 0.0 0.00 0.00 0.00 75 1020.4
20260507002144 63 296 0.0 0.0 0.00 0.00 0.00 75 1020.5
20260507001647 63 317 0.0 0.0 0.00 0.00 0.00 75 1020.4
20260507001149 64 313 0.0 0.0 0.00 0.00 0.00 75 1020.4
20260507000644 64 314 0.0 0.0 0.00 0.00 0.00 74 1020.4
20260507000143 64 258 0.0 0.0 0.00 0.00 0.00 73 1020.4
20260506235643 64 294 0.0 0.0 0.00 0.00 0.00 74 1020.4
20260506235143 65 268 0.0 0.0 0.00 0.00 0.00 74 1020.4
20260506234644 65 228 0.0 0.0 0.00 0.00 0.00 73 1020.4
20260506234142 66 298 0.0 0.0 0.00 0.00 0.00 72 1020.4
20260506233643 66 319 0.0 0.0 0.00 0.00 0.00 73 1020.4
20260506233144 66 284 0.0 0.0 0.00 0.00 0.00 72 1020.4
20260506232643 66 299 0.0 0.0 0.00 0.00 0.00 73 1020.4
20260506232141 66 1 0.0 0.0 0.00 0.00 0.00 76 1020.3
20260506231641 66 305 0.0 0.0 0.00 0.00 0.00 73 1020.4
20260506231142 67 295 0.0 0.0 0.00 0.00 0.00 71 1020.4
20260506230642 67 314 0.0 0.0 0.00 0.00 0.00 75 1020.5
20260506230140 66 8 0.0 0.0 0.00 0.00 0.00 76 1020.4
20260506225640 66 89 0.0 0.0 0.00 0.00 0.00 74 1020.5
20260506225142 66 305 0.0 0.0 0.00 0.00 0.00 72 1020.5
20260506223641 65 305 0.0 0.0 0.00 0.00 0.00 73 1020.7
20260506223141 66 295 0.0 0.0 0.00 0.00 0.00 76 1020.6
20260506222139 66 300 0.0 0.0 0.00 0.00 0.00 72 1020.8
20260506221638 66 302 0.0 0.0 0.00 0.00 0.00 74 1020.7
20260506221139 66 302 0.0 0.0 0.00 0.00 0.00 72 1020.8
20260506220640 66 300 0.0 0.0 0.00 0.00 0.00 72 1020.7
20260506220140 66 300 0.0 0.0 0.00 0.00 0.00 76 1020.7
20260506215137 66 6 0.0 0.0 0.00 0.00 0.00 76 1020.7
20260506214637 66 6 0.0 0.0 0.00 0.00 0.00 75 1020.6
20260506214137 67 319 0.0 0.0 0.00 0.00 0.00 75 1020.6
20260506213638 67 319 0.0 0.0 0.00 0.00 0.00 74 1020.7
20260506213138 67 319 0.0 0.0 0.00 0.00 0.00 75 1020.7
20260506212637 67 295 0.0 0.0 0.00 0.00 0.00 75 1020.7
20260506212138 67 342 0.0 0.0 0.00 0.00 0.00 73 1020.7
20260506211638 67 124 0.0 0.0 0.00 0.00 0.00 74 1020.7
20260506211138 67 118 0.0 0.0 0.00 0.00 0.00 76 1020.7
20260506210637 67 119 0.0 0.0 0.00 0.00 0.00 76 1020.7
20260506210136 66 112 0.0 0.0 0.00 0.00 0.00 77 1020.7
20260506205637 65 120 0.0 0.0 0.00 0.00 0.00 76 1020.7
20260506205137 65 297 0.0 0.0 0.00 0.00 0.00 74 1020.7
20260506204638 65 245 0.0 0.0 0.00 0.00 0.00 75 1020.7
20260506204137 65 307 0.0 0.0 0.00 0.00 0.00 77 1020.7
20260506203637 64 307 0.0 0.0 0.00 0.00 0.00 78 1020.7
20260506203136 64 307 0.0 0.0 0.00 0.00 0.00 76 1020.9
20260506202137 64 250 0.0 0.0 0.00 0.00 0.00 77 1020.9
20260506201638 65 128 0.0 0.0 0.00 0.00 0.00 79 1020.9
20260506201137 65 128 0.0 0.0 0.00 0.00 0.00 79 1020.9
20260506200638 65 128 0.0 0.0 0.00 0.00 0.00 78 1020.9
20260506200137 65 128 0.0 0.0 0.00 0.00 0.00 78 1020.8
20260506195636 65 128 0.0 0.0 0.00 0.00 0.00 77 1020.8
20260506195137 65 134 0.0 0.0 0.00 0.00 0.00 78 1020.8
20260506194636 65 134 0.0 0.0 0.00 0.00 0.00 77 1020.8
20260506194137 65 134 0.0 0.0 0.00 0.00 0.00 76 1020.8
20260506193637 65 122 0.0 0.0 0.00 0.00 0.00 77 1020.8
20260506193137 65 228 0.0 0.0 0.00 0.00 0.00 78 1020.9
20260506192641 65 299 0.0 0.0 0.00 0.00 0.00 76 1020.9
20260506192136 65 117 0.0 0.0 0.00 0.00 0.00 78 1020.9
20260506191637 66 117 0.0 0.0 0.00 0.00 0.00 76 1021.0
20260506191136 66 114 0.0 0.0 0.00 0.00 0.00 76 1020.9
20260506190637 65 136 0.0 0.0 0.00 0.00 0.00 76 1020.9
20260506190137 65 223 0.0 0.0 0.00 0.00 0.00 76 1021.0
20260506185637 66 84 0.0 0.0 0.00 0.00 0.00 78 1020.8
20260506185137 65 89 0.0 0.0 0.00 0.00 0.00 78 1020.9
20260506184638 65 109 0.0 0.0 0.00 0.00 0.00 77 1020.9
20260506183638 64 336 0.0 0.0 0.00 0.00 0.00 77 1020.9
20260506183136 64 98 0.0 0.0 0.00 0.00 0.00 80 1021.0
20260506182636 62 122 0.0 0.0 0.00 0.00 0.00 81 1020.8
20260506181637 62 295 0.0 0.0 0.00 0.00 0.00 81 1021.0
20260506181136 61 291 0.0 0.0 0.00 0.00 0.00 81 1021.0
20260506180136 61 236 0.0 0.0 0.00 0.00 0.00 81 1020.9
20260506175638 61 129 0.0 0.0 0.00 0.00 0.00 80 1020.8
20260506175137 61 109 0.0 0.0 0.00 0.00 0.00 81 1020.9
20260506174634 60 109 0.0 0.0 0.00 0.00 0.00 80 1020.7
20260506174136 60 121 0.0 0.0 0.00 0.00 0.00 81 1020.7
20260506173634 60 106 0.0 0.0 0.00 0.00 0.00 81 1020.6
20260506173132 60 86 0.0 0.0 0.00 0.00 0.00 81 1020.7
20260506172632 60 83 0.0 0.0 0.00 0.00 0.00 81 1020.8
20260506172134 59 304 0.0 0.0 0.00 0.00 0.00 81 1020.8
20260506171632 59 332 0.0 0.0 0.00 0.00 0.00 81 1020.8
20260506171132 59 332 0.0 0.0 0.00 0.00 0.00 81 1020.8
20260506170633 59 332 0.0 0.0 0.00 0.00 0.00 81 1020.8
20260506170134 59 331 0.0 0.0 0.00 0.00 0.00 81 1020.8
20260506165632 58 359 0.0 0.0 0.00 0.00 0.00 82 1020.8
20260506165131 58 359 0.0 0.0 0.00 0.00 0.00 82 1020.7
20260506164632 58 359 0.0 0.0 0.00 0.00 0.00 82 1020.8
20260506164131 58 359 0.0 0.0 0.00 0.00 0.00 82 1020.7
20260506163630 58 359 0.0 0.0 0.00 0.00 0.00 81 1020.6
20260506163131 57 278 0.0 0.0 0.00 0.00 0.00 82 1020.6
20260506162131 57 283 0.0 0.0 0.00 0.00 0.00 83 1020.6
20260506161631 56 53 0.0 0.0 0.00 0.00 0.00 81 1020.7
20260506161130 56 54 0.0 0.0 0.00 0.00 0.00 83 1020.8
20260506160630 56 335 0.0 0.0 0.00 0.00 0.00 83 1020.8
20260506160128 56 336 0.0 0.0 0.00 0.00 0.00 83 1020.9
20260506155628 56 37 0.0 0.0 0.00 0.00 0.00 84 1020.7
20260506155129 56 37 0.0 0.0 0.00 0.00 0.00 84 1020.8
20260506154121 56 130 0.0 0.0 0.00 0.00 0.00 84 1020.6
20260506153620 56 130 0.0 0.0 0.00 0.00 0.00 84 1020.5
20260506153122 56 130 0.0 0.0 0.00 0.00 0.00 84 1020.3
20260506152618 56 130 0.0 0.0 0.00 0.00 0.00 85 1020.3
20260506152119 55 130 0.0 0.0 0.00 0.00 0.00 85 1020.4
20260506151618 55 130 0.0 0.0 0.00 0.00 0.00 85 1020.0
20260506150118 55 319 0.0 0.0 0.00 0.00 0.00 84 1020.2
20260506145616 55 315 0.0 0.0 0.00 0.00 0.00 86 1020.4
20260506145117 54 315 0.0 0.0 0.00 0.00 0.00 87 1020.4
20260506144118 54 315 0.0 0.0 0.00 0.00 0.00 87 1020.4
20260506143616 54 315 0.0 0.0 0.00 0.00 0.00 87 1020.7
20260506142616 53 315 0.0 0.0 0.00 0.00 0.00 87 1020.6
20260506141115 53 315 0.0 0.0 0.00 0.00 0.00 87 1020.5
20260506140615 53 315 0.0 0.0 0.00 0.00 0.00 87 1020.5
20260506140114 53 315 0.0 0.0 0.00 0.00 0.00 87 1020.4
20260506134615 53 306 0.0 0.0 0.00 0.00 0.00 88 1020.1
20260506134115 53 305 0.0 0.0 0.00 0.00 0.00 88 1019.9
20260506133116 53 305 0.0 0.0 0.00 0.00 0.00 88 1019.9
20260506132615 53 305 0.0 0.0 0.00 0.00 0.00 88 1019.9
20260506132112 53 305 0.0 0.0 0.00 0.00 0.00 88 1019.9
20260506131612 53 305 0.0 0.0 0.00 0.00 0.00 88 1019.9
20260506131112 53 305 0.0 0.0 0.00 0.00 0.00 88 1019.9
20260506130612 53 305 0.0 0.0 0.00 0.00 0.00 88 1019.8
20260506130114 53 303 0.0 0.0 0.00 0.00 0.00 88 1019.8
20260506125613 53 296 0.0 0.0 0.00 0.00 0.00 88 1019.7
20260506125113 53 287 0.0 0.0 0.00 0.00 0.00 88 1019.6
20260506124614 53 308 0.0 0.0 0.00 0.00 0.00 88 1019.7
20260506124114 53 308 0.0 0.0 0.00 0.00 0.00 88 1019.7
20260506123612 53 308 0.0 0.0 0.00 0.00 0.00 88 1019.5
20260506123110 53 307 0.0 0.0 0.00 0.00 0.00 88 1019.4
20260506122610 53 307 0.0 0.0 0.00 0.00 0.00 88 1019.5
20260506121611 53 307 0.0 0.0 0.00 0.00 0.00 88 1019.5
20260506121112 53 307 0.0 0.0 0.00 0.00 0.00 88 1019.4
20260506120611 53 316 0.0 0.0 0.00 0.00 0.00 88 1019.4
20260506120110 53 316 0.0 0.0 0.00 0.00 0.00 88 1019.5
20260506115610 53 316 0.0 0.0 0.00 0.00 0.00 88 1019.4
20260506115110 53 316 0.0 0.0 0.00 0.00 0.00 88 1019.5
20260506113609 53 316 0.0 0.0 0.00 0.00 0.00 87 1019.3
20260506112610 54 316 0.0 0.0 0.00 0.00 0.00 87 1019.3
20260506112108 54 316 0.0 0.0 0.00 0.00 0.00 87 1019.3
20260506111107 54 316 0.0 0.0 0.00 0.00 0.00 87 1019.2
20260506110109 54 319 0.0 0.0 0.00 0.00 0.00 87 1019.0
20260506105609 54 319 0.0 0.0 0.00 0.00 0.00 86 1019.0
20260506105107 54 307 0.0 0.0 0.00 0.00 0.00 86 1018.9
20260506104608 54 305 0.0 0.0 0.00 0.00 0.00 86 1018.8
20260506103618 54 307 0.0 0.0 0.00 0.00 0.00 86 1018.8
20260506103119 55 313 0.0 0.0 0.00 0.00 0.00 86 1018.7
20260506102619 55 87 0.0 0.0 0.00 0.00 0.00 86 1018.7
20260506102128 55 319 0.0 0.0 0.00 0.00 0.00 86 1018.7
20260506101631 55 304 0.0 0.0 0.00 0.00 0.00 86 1018.6
20260506101116 55 304 0.0 0.0 0.00 0.00 0.00 86 1018.5
20260506100616 55 302 0.0 0.0 0.00 0.00 0.00 86 1018.5
20260506100115 55 301 0.0 0.0 0.00 0.00 0.00 86 1018.4
20260506095617 55 303 0.0 0.0 0.00 0.00 0.00 85 1018.3
20260506095104 55 302 0.0 0.0 0.00 0.00 0.00 85 1018.3
20260506093605 55 301 0.0 0.0 0.00 0.00 0.00 85 1018.0
20260506093105 55 306 0.0 0.0 0.00 0.00 0.00 85 1018.0
20260506092603 55 306 0.0 0.0 0.00 0.00 0.00 85 1018.1
20260506091600 55 302 0.0 0.0 0.00 0.00 0.00 85 1018.0
20260506091102 55 302 0.0 0.0 0.00 0.00 0.00 85 1018.0
20260506090559 55 304 0.0 0.0 0.00 0.00 0.00 85 1018.1
20260506090059 55 306 0.0 0.0 0.00 0.00 0.00 85 1018.1
20260506085558 55 306 0.0 0.0 0.00 0.00 0.00 85 1018.0
20260506085057 55 306 0.0 0.0 0.00 0.00 0.00 85 1018.0
20260506084558 55 306 0.0 0.0 0.00 0.00 0.00 85 1018.1
20260506083556 55 301 0.0 0.0 0.00 0.00 0.00 85 1018.0
20260506083055 55 307 0.0 0.0 0.00 0.00 0.00 85 1018.0
20260506082555 55 307 0.0 0.0 0.00 0.00 0.00 85 1017.9
20260506082055 55 307 0.0 0.0 0.00 0.00 0.00 85 1018.0
20260506081556 55 306 0.0 0.0 0.00 0.00 0.00 85 1018.0
20260506080553 55 303 0.0 0.0 0.00 0.00 0.00 85 1017.9
20260506073051 55 297 0.0 0.0 0.00 0.00 0.00 85 1017.6
20260506072551 55 297 0.0 0.0 0.00 0.00 0.00 85 1017.5
20260506072052 55 297 0.0 0.0 0.00 0.00 0.00 85 1017.5
20260506071052 55 297 0.0 0.0 0.00 0.00 0.00 86 1017.6
20260506070554 55 285 0.0 0.0 0.00 0.00 0.00 86 1017.5
20260506062043 56 285 0.0 0.0 0.00 0.00 0.00 84 1017.3
20260506061544 57 285 0.0 0.0 0.00 0.00 0.00 84 1017.2
20260506061044 57 285 0.0 0.0 0.00 0.00 0.00 83 1017.1
20260506060541 57 285 0.0 0.0 0.00 0.00 0.00 83 1017.2
20260506051040 58 255 0.0 0.0 0.00 0.00 0.00 84 1017.1
20260506050540 58 248 0.0 0.0 0.00 0.00 0.00 84 1017.0
20260506045039 57 245 0.0 0.0 0.00 0.00 0.00 86 1016.9
20260506044040 57 234 0.0 0.0 0.00 0.00 0.00 88 1016.9
20260506043540 57 234 0.0 0.0 0.00 0.00 0.00 88 1016.8
20260506043040 57 234 0.0 0.0 0.00 0.00 0.00 88 1016.8
20260506042538 56 234 0.0 0.0 0.00 0.00 0.00 88 1016.7
20260506042037 56 234 0.0 0.0 0.00 0.00 0.00 88 1016.7
20260506041538 56 234 0.0 0.0 0.00 0.00 0.00 88 1016.6
20260506040037 56 234 0.0 0.0 0.00 0.00 0.00 87 1016.4
20260506035538 57 234 0.0 0.0 0.00 0.00 0.00 87 1016.3
20260506035037 57 234 0.0 0.0 0.00 0.00 0.00 87 1016.2
20260506034538 57 234 0.0 0.0 0.00 0.00 0.00 86 1016.1
20260506033536 57 257 0.0 0.0 0.00 0.00 0.00 86 1016.1
20260506033035 57 257 0.0 0.0 0.00 0.00 0.00 86 1016.0
20260506032535 58 257 0.0 0.0 0.00 0.00 0.00 86 1015.9
20260506032037 58 257 0.0 0.0 0.00 0.00 0.00 85 1015.8
20260506031035 58 257 0.0 0.0 0.00 0.00 0.00 85 1015.8
20260506030537 58 316 0.0 0.0 0.00 0.00 0.00 85 1015.6
20260506025036 59 321 0.0 0.0 0.00 0.00 0.00 84 1015.5
20260506024533 59 321 0.0 0.0 0.00 0.00 0.00 84 1015.6
20260506024034 59 321 0.0 0.0 0.00 0.00 0.00 84 1015.5
20260506023534 59 321 0.0 0.0 0.00 0.00 0.00 84 1015.5
20260506023033 59 321 0.0 0.0 0.00 0.00 0.00 83 1015.4
20260506022532 59 321 0.0 0.0 0.00 0.00 0.00 83 1015.4
20260506022033 60 321 0.0 0.0 0.00 0.00 0.00 83 1015.4
20260506021535 60 321 0.0 0.0 0.00 0.00 0.00 83 1015.3
20260506021034 60 321 0.0 0.0 0.00 0.00 0.00 83 1015.4
20260506020536 60 321 0.0 0.0 0.00 0.00 0.00 82 1015.3
20260506020032 60 321 0.0 0.0 0.00 0.00 0.00 82 1015.4
20260506015530 60 321 0.0 0.0 0.00 0.00 0.00 82 1015.4